• en France
  • Liste des pays
  • À 7 jours
  • Température de l'eau
  • Carte satellitaire
  • Carte météo
  • Widgets météo
  • user-avatar
    Se connecter

    Météo par heure à Ordino

    Ce jour, 15 Novembre, Jeudi

    Heure Température Précipitation Vent Pression Humidité
    00:00 +4°C° 0 mm 2 m/s 635 mmHg 78%
    01:00 +4°C° 0 mm 2 m/s 635 mmHg 80%
    02:00 +4°C° 0 mm 2 m/s 635 mmHg 81%
    03:00 +4°C° 0 mm 2 m/s 634 mmHg 83%
    04:00 +4°C° 0 mm 2 m/s 634 mmHg 83%
    05:00 +4°C° 0 mm 2 m/s 634 mmHg 84%
    06:00 +4°C° 0 mm 2 m/s 634 mmHg 86%
    07:00 +5°C° 0 mm 2 m/s 635 mmHg 82%
    08:00 +7°C° 0 mm 2 m/s 635 mmHg 78%
    09:00 +9°C° 0 mm 1 m/s 636 mmHg 74%
    10:00 +9°C° 0.1 mm 2 m/s 636 mmHg 72%
    11:00 +9°C° 0.1 mm 2 m/s 636 mmHg 70%
    12:00 +10°C° 0 mm 2 m/s 637 mmHg 70%
    13:00 +10°C° 0.3 mm 2 m/s 637 mmHg 72%
    14:00 +10°C° 0.3 mm 2 m/s 636 mmHg 75%
    15:00 +9°C° 0.3 mm 2 m/s 636 mmHg 77%
    16:00 +9°C° 0.1 mm 1 m/s 636 mmHg 82%
    17:00 +8°C° 0.1 mm 1 m/s 635 mmHg 87%
    18:00 +7°C° 0.1 mm 1 m/s 635 mmHg 92%
    19:00 +6°C° 0 mm 1 m/s 635 mmHg 91%
    20:00 +6°C° 0 mm 1 m/s 635 mmHg 91%
    21:00 +6°C° 0 mm 1 m/s 635 mmHg 90%
    22:00 +6°C° 0.1 mm 1 m/s 635 mmHg 89%
    23:00 +6°C° 0.1 mm 1 m/s 635 mmHg 88%

    Demain, 16 Novembre, Vendredi

    Heure Température Précipitation Vent Pression Humidité
    00:00 +6°C° 0.1 mm 1 m/s 635 mmHg 87%
    01:00 +6°C° 0.1 mm 1 m/s 635 mmHg 87%
    02:00 +6°C° 0.1 mm 1 m/s 635 mmHg 87%
    03:00 +5°C° 0.1 mm 1 m/s 635 mmHg 86%
    04:00 +5°C° 0 mm 1 m/s 635 mmHg 86%
    05:00 +5°C° 0 mm 1 m/s 635 mmHg 86%
    06:00 +5°C° 0 mm 1 m/s 635 mmHg 87%
    07:00 +6°C° 0 mm 1 m/s 635 mmHg 83%
    08:00 +7°C° 0 mm 1 m/s 636 mmHg 79%
    09:00 +9°C° 0 mm 1 m/s 637 mmHg 75%
    10:00 +10°C° 0 mm 1 m/s 637 mmHg 71%
    11:00 +10°C° 0 mm 2 m/s 637 mmHg 68%
    12:00 +12°C° 0 mm 2 m/s 637 mmHg 65%
    13:00 +10°C° 0 mm 2 m/s 637 mmHg 68%
    14:00 +10°C° 0 mm 2 m/s 636 mmHg 70%
    15:00 +9°C° 0 mm 2 m/s 636 mmHg 73%
    16:00 +9°C° 0 mm 1 m/s 636 mmHg 80%
    17:00 +8°C° 0 mm 1 m/s 635 mmHg 86%
    18:00 +6°C° 0 mm 1 m/s 635 mmHg 93%
    19:00 +6°C° 0 mm 1 m/s 635 mmHg 93%
    20:00 +6°C° 0 mm 1 m/s 635 mmHg 92%
    21:00 +6°C° 0 mm 1 m/s 635 mmHg 92%
    22:00 +6°C° 0 mm 1 m/s 634 mmHg 92%
    23:00 +5°C° 0 mm 1 m/s 634 mmHg 92%

    Après-demain, 17 Novembre, Samedi

    Heure Température Précipitation Vent Pression Humidité
    00:00 +5°C° 0 mm 1 m/s 634 mmHg 92%
    01:00 +5°C° 0 mm 1 m/s 634 mmHg 91%
    02:00 +5°C° 0 mm 1 m/s 634 mmHg 91%
    03:00 +5°C° 0 mm 1 m/s 633 mmHg 91%
    04:00 +5°C° 0 mm 1 m/s 633 mmHg 91%
    05:00 +4°C° 0 mm 1 m/s 633 mmHg 90%
    06:00 +4°C° 0 mm 1 m/s 633 mmHg 90%
    07:00 +5°C° 0 mm 1 m/s 633 mmHg 86%
    08:00 +6°C° 0 mm 1 m/s 633 mmHg 82%
    09:00 +7°C° 0 mm 1 m/s 634 mmHg 78%
    10:00 +8°C° 0 mm 1 m/s 634 mmHg 76%
    11:00 +8°C° 0 mm 1 m/s 634 mmHg 73%
    12:00 +9°C° 0 mm 1 m/s 633 mmHg 70%
    13:00 +8°C° 0.1 mm 1 m/s 633 mmHg 74%
    14:00 +7°C° 0.1 mm 2 m/s 632 mmHg 78%
    15:00 +6°C° 0.1 mm 2 m/s 632 mmHg 82%
    16:00 +5°C° 0.3 mm 2 m/s 632 mmHg 85%
    17:00 +4°C° 0.3 mm 2 m/s 632 mmHg 88%
    18:00 +4°C° 0.3 mm 2 m/s 631 mmHg 90%
    19:00 +3°C° 0.5 mm 2 m/s 631 mmHg 90%
    20:00 +2°C° 0.5 mm 3 m/s 631 mmHg 90%
    21:00 +2°C° 0.5 mm 3 m/s 631 mmHg 90%
    22:00 +2°C° 0.5 mm 3 m/s 631 mmHg 90%
    23:00 +2°C° 0.5 mm 3 m/s 631 mmHg 89%

    18 Novembre, Dimanche

    Heure Température Précipitation Vent Pression Humidité
    00:00 +1°C° 0.5 mm 3 m/s 630 mmHg 89%
    01:00 +1°C° 0.5 mm 3 m/s 630 mmHg 89%
    02:00 +2°C° 0.5 mm 2 m/s 630 mmHg 89%
    03:00 +2°C° 0.5 mm 2 m/s 630 mmHg 89%
    04:00 +2°C° 0.5 mm 2 m/s 630 mmHg 89%
    05:00 +2°C° 0.5 mm 2 m/s 629 mmHg 89%
    06:00 +2°C° 0.5 mm 2 m/s 629 mmHg 89%
    07:00 +2°C° 0.7 mm 2 m/s 630 mmHg 87%
    08:00 +3°C° 0.7 mm 2 m/s 630 mmHg 85%
    09:00 +2°C° 0.7 mm 3 m/s 630 mmHg 84%
    10:00 +2°C° 0.9 mm 3 m/s 630 mmHg 83%
    11:00 +3°C° 0.9 mm 3 m/s 630 mmHg 83%
    12:00 +3°C° 0.9 mm 3 m/s 630 mmHg 83%
    13:00 +3°C° 0.8 mm 3 m/s 630 mmHg 84%
    14:00 +2°C° 0.8 mm 3 m/s 629 mmHg 85%
    15:00 +2°C° 0.8 mm 3 m/s 629 mmHg 86%
    16:00 +2°C° 0.6 mm 3 m/s 629 mmHg 87%
    17:00 +1°C° 0.6 mm 3 m/s 629 mmHg 88%
    18:00 +2°C° 0.6 mm 2 m/s 628 mmHg 90%
    19:00 +2°C° 0.2 mm 2 m/s 628 mmHg 90%
    20:00 +1°C° 0.2 mm 2 m/s 628 mmHg 90%
    21:00 +1°C° 0.2 mm 2 m/s 628 mmHg 90%
    22:00 +1°C° 0 mm 2 m/s 628 mmHg 89%
    23:00 +1°C° 0 mm 2 m/s 628 mmHg 89%

    19 Novembre, Lundi

    Heure Température Précipitation Vent Pression Humidité
    00:00 +1°C° 0 mm 2 m/s 628 mmHg 88%
    01:00 +1°C° 0 mm 1 m/s 627 mmHg 88%
    02:00 +1°C° 0 mm 1 m/s 627 mmHg 87%
    03:00 +1°C° 0 mm 1 m/s 626 mmHg 86%
    04:00 +1°C° 0 mm 1 m/s 626 mmHg 85%
    05:00 +1°C° 0 mm 1 m/s 626 mmHg 84%
    06:00 +1°C° 0 mm 1 m/s 625 mmHg 83%
    07:00 +2°C° 0 mm 1 m/s 626 mmHg 81%
    08:00 +3°C° 0 mm 1 m/s 626 mmHg 79%
    09:00 +3°C° 0 mm 0 m/s 627 mmHg 77%
    10:00 +5°C° 0 mm 1 m/s 627 mmHg 75%
    11:00 +6°C° 0 mm 1 m/s 627 mmHg 73%
    12:00 +7°C° 0 mm 1 m/s 627 mmHg 70%
    13:00 +7°C° 0 mm 1 m/s 626 mmHg 72%
    14:00 +6°C° 0 mm 1 m/s 625 mmHg 73%
    15:00 +6°C° 0 mm 1 m/s 625 mmHg 75%
    16:00 +4°C° 0 mm 1 m/s 624 mmHg 79%
    17:00 +3°C° 0 mm 1 m/s 624 mmHg 83%
    18:00 +1°C° 0 mm 1 m/s 623 mmHg 88%
    19:00 +1°C° 0 mm 1 m/s 623 mmHg 88%
    20:00 +1°C° 0 mm 1 m/s 623 mmHg 88%
    21:00 0°C° 0 mm 1 m/s 623 mmHg 87%
    22:00 0°C° 0 mm 1 m/s 623 mmHg 86%
    23:00 0°C° 0 mm 1 m/s 622 mmHg 85%

    20 Novembre, Mardi

    Heure Température Précipitation Vent Pression Humidité
    00:00 -1°C° 0 mm 1 m/s 622 mmHg 84%
    01:00 -1°C° 0 mm 1 m/s 622 mmHg 83%
    02:00 -1°C° 0 mm 1 m/s 622 mmHg 82%
    03:00 -4°C° 0 mm 2 m/s 621 mmHg 80%
    04:00 -4°C° 0 mm 2 m/s 621 mmHg 79%
    05:00 -4°C° 0 mm 2 m/s 621 mmHg 78%
    06:00 -5°C° 0 mm 2 m/s 621 mmHg 77%
    07:00 -4°C° 0 mm 2 m/s 622 mmHg 75%
    08:00 -2°C° 0 mm 2 m/s 622 mmHg 72%
    09:00 -1°C° 0 mm 2 m/s 623 mmHg 70%
    10:00 +1°C° 0 mm 2 m/s 623 mmHg 68%
    11:00 +1°C° 0 mm 2 m/s 624 mmHg 66%
    12:00 +2°C° 0 mm 2 m/s 624 mmHg 64%
    13:00 +2°C° 0 mm 2 m/s 624 mmHg 65%
    14:00 +2°C° 0 mm 2 m/s 624 mmHg 67%
    15:00 +1°C° 0 mm 2 m/s 623 mmHg 68%
    16:00 -1°C° 0 mm 2 m/s 623 mmHg 73%
    17:00 -3°C° 0 mm 2 m/s 623 mmHg 78%
    18:00 -5°C° 0 mm 2 m/s 623 mmHg 83%
    19:00 -3°C° 0 mm 1 m/s 623 mmHg 83%
    20:00 -3°C° 0 mm 1 m/s 624 mmHg 83%
    21:00 -3°C° 0 mm 1 m/s 624 mmHg 82%
    22:00 -2°C° 0 mm 1 m/s 624 mmHg 85%
    23:00 -2°C° 0 mm 1 m/s 624 mmHg 87%
    Voir plus